Home   Weather   Tulsa   Past weeks
Flag for USA

Past Weather in Tulsa, Oklahoma, USA — Yesterday and Last 2 Weeks

Now
45 °F

Clear.


Feels Like: 44 °F
Forecast: 63 / 40 °F
Wind: 3 mph from Northwest

Location: Tulsa International Airport

Current Time: Mar 21, 2019 at 5:13:14 am

Latest Report: Mar 21, 2019 at 3:53 am


Visibility: 10 mi

Pressure: 30.14 "Hg

Humidity: 58%

Dew Point: 31 °F

Location of TulsaLocation

Past Weather in Tulsa — Graph

°F

Tulsa Temperature Yesterday

Maximum temperature yesterday: 62 °F (at 4:53 pm)
Minimum temperature yesterday: 45 °F (at 7:53 am)
Average temperature yesterday: 53 °F

High & Low Weather Summary for the Past Weeks

 TemperatureHumidityPressure
High71 °F (Mar 19, 3:53 pm)100% (Mar 13, 9:05 am)30.55 "Hg (Mar 13, 9:05 am)
Low19 °F (Mar 6, 6:53 am)22% (Mar 17, 4:53 pm)29.29 "Hg (Mar 13, 5:53 pm)
Average50 °F62%30.08 "Hg
* Reported Mar 6 2:53 am — Mar 21 3:53 am, Tulsa. Weather by CustomWeather, © 2019

Note: Actual official high and low records may vary slightly from our data, if they occured in-between our weather recording intervals... More about our weather records

Advertising

Tulsa Weather History for the Previous 24 Hours

Scroll right to see more
 ConditionsComfort  
Time TempWeatherWind HumidityBarometerVisibility
3:53 am
Thu, Mar 21
45 °FClear.3 mph58%30.14 "Hg10 mi
2:53 am44 °FClear.3 mph60%30.14 "Hg10 mi
1:53 am49 °FClear.5 mph52%30.13 "Hg10 mi
12:53 am46 °FClear.No wind61%30.14 "Hg10 mi
11:53 pm
Wed, Mar 20
49 °FClear.5 mph55%30.14 "Hg10 mi
10:53 pm53 °FClear.5 mph47%30.15 "Hg10 mi
9:53 pm55 °FClear.5 mph44%30.16 "Hg10 mi
8:53 pm54 °FClear.6 mph45%30.16 "Hg10 mi
7:53 pm53 °FClear.8 mph48%30.15 "Hg10 mi
6:53 pm59 °FSunny.14 mph36%30.14 "Hg10 mi
5:53 pm61 °FPassing clouds.10 mph32%30.13 "Hg10 mi
4:53 pm62 °FPassing clouds.15 mph32%30.14 "Hg10 mi
3:53 pm59 °FPartly sunny.13 mph39%30.16 "Hg10 mi
2:53 pm61 °FPartly sunny.15 mph39%30.18 "Hg10 mi
1:53 pm58 °FBroken clouds.8 mph46%30.21 "Hg10 mi
12:53 pm56 °FBroken clouds.12 mph53%30.24 "Hg10 mi
11:53 am54 °FScattered clouds.12 mph62%30.26 "Hg10 mi
10:53 am49 °FScattered clouds.10 mph74%30.28 "Hg10 mi
9:53 am47 °FBroken clouds.9 mph80%30.27 "Hg10 mi
8:53 am45 °FOvercast.10 mph82%30.26 "Hg10 mi
7:53 am45 °FOvercast.8 mph86%30.24 "Hg9 mi
6:53 am46 °FOvercast.No wind89%30.24 "Hg9 mi
5:53 am46 °FLight rain. Mostly cloudy.8 mph89%30.22 "Hg8 mi
Weather by CustomWeather, © 2019

See weather overview